QPF
0.00 0.00 0.00 0.00 0.00 0.00 0.00 0.00 0.00 0.00 0.00 0.00 0.00 0.00 0.00 0.00 0.00 0.00 0.00 0.00 0.00 0.00 0.00 0.00 0.01 0.01 0.02 0.03 0.03 0.04 0.05 0.03 0.02 0.01 0.00 0.00 0.00 0.01 0.02 0.01 0.01 0.00 0.00
0.00 0.00 0.00 0.00 0.00 0.00 0.00 0.00 0.00 0.00 0.00 0.00 0.00 0.00 0.00 0.00 0.00 0.00 0.00 0.00 0.00 0.00 0.00 0.00 0.00 0.01 0.01 0.03 0.03 0.04 0.04 0.05 0.05 0.05 0.03 0.02 0.02 0.02 0.02 0.03 0.03 0.02 0.01
0.00 0.00 0.00 0.00 0.00 0.00 0.00 0.00 0.00 0.00 0.00 0.00 0.00 0.00 0.00 0.00 0.00 0.00 0.00 0.00 0.00 0.00 0.00 0.00 0.00 0.01 0.01 0.01 0.02 0.01 0.01 0.01 0.03 0.05 0.06 0.08 0.07 0.05 0.04 0.03 0.03 0.03 0.04
0.00 0.00 0.00 0.00 0.00 0.00 0.00 0.00 0.00 0.00 0.00 0.00 0.00 0.00 0.00 0.00 0.00 0.00 0.00 0.00 0.00 0.00 0.00 0.00 0.00 0.01 0.01 0.01 0.01 0.01 0.01 0.02 0.03 0.03 0.03 0.06 0.08 0.09 0.09 0.07 0.06 0.04 0.04
0.00 0.00 0.00 0.00 0.00 0.00 0.00 0.00 0.00 0.00 0.00 0.00 0.00 0.00 0.00 0.00 0.00 0.00 0.00 0.00 0.00 0.00 0.00 0.00 0.00 0.00 0.00 0.00 0.00 0.01 0.02 0.03 0.03 0.03 0.03 0.03 0.03 0.04 0.07 0.11 0.12 0.12 0.10
0.00 0.00 0.00 0.00 0.00 0.00 0.00 0.00 0.00 0.00 0.00 0.00 0.00 0.00 0.00 0.00 0.00 0.00 0.00 0.00 0.00 0.00 0.00 0.00 0.00 0.00 0.00 0.00 0.00 0.00 0.00 0.00 0.01 0.01 0.01 0.01 0.01 0.03 0.06 0.08 0.10 0.11 0.12
0.00 0.00 0.00 0.00 0.00 0.00 0.00 0.00 0.00 0.00 0.00 0.00 0.00 0.00 0.00 0.00 0.00 0.00 0.00 0.00 0.00 0.00 0.00 0.00 0.00 0.00 0.00 0.00 0.00 0.00 0.00 0.00 0.00 0.00 0.00 0.00 0.00 0.00 0.01 0.02 0.03 0.06 0.10
0.00 0.00 0.00 0.00 0.00 0.00 0.00 0.00 0.00 0.00 0.00 0.00 0.00 0.00 0.00 0.00 0.00 0.00 0.00 0.00 0.00 0.00 0.00 0.00 0.00 0.00 0.00 0.00 0.00 0.00 0.00 0.00 0.00 0.00 0.00 0.00 0.00 0.00 0.00 0.00 0.01 0.03 0.05
0.00 0.00 0.00 0.00 0.00 0.00 0.00 0.00 0.00 0.00 0.00 0.00 0.00 0.00 0.00 0.00 0.00 0.00 0.00 0.00 0.00 0.00 0.00 0.00 0.00 0.00 0.00 0.00 0.00 0.00 0.00 0.00 0.00 0.00 0.00 0.00 0.00 0.00 0.00 0.01 0.01 0.02 0.02
0.00 0.00 0.00 0.00 0.00 0.00 0.00 0.00 0.00 0.00 0.00 0.00 0.00 0.00 0.00 0.00 0.00 0.00 0.00 0.00 0.00 0.00 0.00 0.00 0.00 0.00 0.00 0.00 0.00 0.00 0.00 0.00 0.00 0.00 0.00 0.00 0.00 0.00 0.00 0.01 0.02 0.02 0.03
0.00 0.00 0.00 0.00 0.00 0.00 0.00 0.00 0.00 0.00 0.00 0.00 0.00 0.00 0.00 0.00 0.00 0.00 0.00 0.00 0.00 0.00 0.00 0.00 0.00 0.00 0.00 0.00 0.00 0.00 0.00 0.00 0.00 0.00 0.00 0.00 0.00 0.00 0.00 0.00 0.01 0.02 0.02
0.00 0.00 0.00 0.00 0.00 0.00 0.00 0.00 0.00 0.00 0.00 0.00 0.00 0.00 0.00 0.00 0.00 0.00 0.00 0.00 0.00 0.00 0.00 0.00 0.00 0.00 0.00 0.00 0.00 0.00 0.00 0.00 0.00 0.00 0.00 0.00 0.00 0.00 0.00 0.00 0.01 0.01 0.01
0.00 0.00 0.00 0.00 0.00 0.00 0.00 0.00 0.00 0.00 0.00 0.00 0.00 0.00 0.00 0.00 0.00 0.00 0.00 0.00 0.00 0.00 0.00 0.00 0.00 0.00 0.00 0.00 0.00 0.00 0.00 0.00 0.00 0.00 0.00 0.00 0.00 0.00 0.00 0.00 0.00 0.00 0.00
0.00 0.00 0.00 0.00 0.00 0.00 0.00 0.00 0.00 0.00 0.00 0.00 0.00 0.00 0.00 0.00 0.00 0.00 0.00 0.00 0.00 0.00 0.00 0.00 0.00 0.00 0.00 0.00 0.00 0.00 0.00 0.00 0.00 0.00 0.00 0.00 0.00 0.00 0.00 0.00 0.00 0.00 0.00
0.00 0.00 0.00 0.00 0.00 0.00 0.00 0.00 0.00 0.00 0.00 0.00 0.00 0.00 0.00 0.00 0.00 0.00 0.00 0.00 0.00 0.00 0.00 0.00 0.00 0.00 0.00 0.00 0.00 0.00 0.00 0.00 0.00 0.00 0.00 0.00 0.00 0.00 0.00 0.00 0.00 0.00 0.00
0.00 0.00 0.00 0.00 0.00 0.00 0.00 0.00 0.00 0.00 0.00 0.00 0.00 0.00 0.00 0.00 0.00 0.00 0.00 0.00 0.00 0.00 0.00 0.00 0.00 0.00 0.00 0.00 0.00 0.00 0.00 0.00 0.00 0.00 0.00 0.00 0.00 0.00 0.00 0.00 0.00 0.00 0.00
0.00 0.00 0.00 0.00 0.00 0.00 0.00 0.00 0.00 0.00 0.00 0.00 0.00 0.00 0.00 0.00 0.00 0.00 0.00 0.00 0.00 0.00 0.00 0.00 0.00 0.00 0.00 0.00 0.00 0.00 0.00 0.00 0.00 0.00 0.00 0.00 0.00 0.00 0.00 0.00 0.01 0.00 0.00
0.00 0.00 0.00 0.00 0.00 0.00 0.00 0.00 0.00 0.00 0.00 0.00 0.00 0.00 0.00 0.00 0.00 0.00 0.00 0.00 0.00 0.00 0.00 0.00 0.00 0.00 0.00 0.00 0.00 0.00 0.00 0.00 0.00 0.00 0.00 0.00 0.00 0.00 0.00 0.00 0.00 0.00 0.00
0.00 0.00 0.00 0.00 0.00 0.00 0.00 0.00 0.00 0.00 0.00 0.00 0.00 0.00 0.00 0.00 0.00 0.00 0.00 0.00 0.00 0.00 0.00 0.00 0.00 0.00 0.00 0.00 0.00 0.00 0.00 0.00 0.00 0.00 0.00 0.00 0.00 0.00 0.00 0.00 0.00 0.00 0.00
0.00 0.00 0.00 0.00 0.00 0.00 0.00 0.00 0.00 0.00 0.00 0.00 0.00 0.00 0.00 0.00 0.00 0.00 0.00 0.00 0.00 0.00 0.00 0.00 0.00 0.00 0.00 0.00 0.00 0.00 0.00 0.00 0.00 0.00 0.00 0.00 0.00 0.00 0.00 0.00 0.00 0.00 0.00
0.00 0.00 0.00 0.00 0.00 0.00 0.00 0.00 0.00 0.00 0.00 0.00 0.00 0.00 0.00 0.00 0.00 0.00 0.00 0.00 0.00 0.00 0.00 0.00 0.01 0.00 0.00 0.00 0.00 0.00 0.00 0.00 0.00 0.00 0.00 0.00 0.00 0.00 0.00 0.00 0.00 0.00 0.00
0.00 0.00 0.00 0.00 0.00 0.00 0.00 0.00 0.00 0.00 0.00 0.00 0.00 0.00 0.00 0.00 0.00 0.00 0.00 0.00 0.01 0.02 0.01 0.01 0.00 0.00 0.00 0.00 0.00 0.00 0.00 0.00 0.00 0.00 0.00 0.00 0.00 0.00 0.00 0.00 0.00 0.00 0.01
0.00 0.00 0.00 0.00 0.00 0.00 0.00 0.00 0.00 0.00 0.00 0.00 0.00 0.00 0.00 0.00 0.00 0.00 0.00 0.01 0.01 0.05 0.05 0.01 0.00 0.00 0.00 0.00 0.00 0.00 0.00 0.01 0.01 0.00 0.00 0.00 0.00 0.00 0.00 0.00 0.00 0.00 0.01
0.00 0.00 0.00 0.00 0.00 0.00 0.00 0.00 0.00 0.00 0.00 0.00 0.00 0.00 0.00 0.00 0.00 0.01 0.00 0.00 0.00 0.01 0.00 0.00 0.00 0.00 0.00 0.00 0.00 0.00 0.00 0.00 0.00 0.00 0.00 0.00 0.00 0.00 0.00 0.00 0.00 0.00 0.00
0.00 0.00 0.00 0.00 0.00 0.00 0.00 0.00 0.00 0.00 0.00 0.00 0.00 0.00 0.00 0.00 0.00 0.00 0.01 0.00 0.00 0.00 0.00 0.00 0.01 0.01 0.00 0.00 0.00 0.00 0.00 0.00 0.00 0.00 0.00 0.00 0.00 0.00 0.00 0.00 0.00 0.00 0.00
0.00 0.00 0.00 0.00 0.00 0.00 0.00 0.00 0.00 0.00 0.00 0.00 0.00 0.00 0.00 0.00 0.00 0.03 0.02 0.00 0.00 0.00 0.00 0.00 0.00 0.00 0.00 0.00 0.00 0.00 0.00 0.00 0.00 0.00 0.00 0.00 0.00 0.00 0.00 0.00 0.00 0.00 0.00
MSLP
1012.70 1012.72 1012.80 1012.75 1012.63 1012.50 1012.50 1012.57 1012.46 1012.41 1012.25 1012.09 1011.87 1011.74 1011.67 1011.39 1011.32 1011.22 1011.11 1010.84 1010.60 1010.29 1010.13 1009.80 1009.54 1009.22 1009.05 1008.94 1008.95 1008.86 1008.77 1008.83 1008.81 1008.72 1008.63 1008.61 1008.68 1008.74 1008.69 1008.69 1008.76 1008.81 1008.92
1012.53 1012.71 1012.78 1012.78 1012.62 1012.43 1012.41 1012.31 1012.45 1012.46 1012.41 1012.39 1012.28 1011.98 1011.85 1011.45 1011.28 1011.09 1010.85 1010.60 1010.29 1010.08 1009.79 1009.54 1009.12 1008.70 1008.44 1008.28 1008.19 1008.19 1008.15 1008.08 1007.99 1007.89 1007.82 1007.74 1007.70 1007.72 1007.68 1007.76 1007.83 1007.88 1007.93
1012.43 1012.63 1013.03 1013.13 1012.93 1012.74 1012.63 1012.61 1012.74 1012.82 1012.78 1012.69 1012.51 1012.24 1012.06 1011.79 1011.45 1011.20 1010.93 1010.66 1010.43 1010.25 1010.06 1009.71 1009.24 1008.70 1008.40 1008.27 1008.07 1007.92 1007.48 1007.32 1007.30 1007.16 1006.99 1006.86 1006.75 1006.75 1006.72 1006.71 1006.68 1006.76 1006.97
1012.71 1012.99 1013.37 1013.57 1013.43 1013.32 1013.35 1013.32 1013.43 1013.41 1013.37 1013.27 1012.99 1012.55 1012.31 1011.96 1011.63 1011.39 1011.14 1010.96 1010.74 1010.40 1010.10 1009.75 1009.39 1009.03 1008.74 1008.47 1008.11 1007.72 1007.29 1007.04 1007.04 1006.82 1006.58 1006.40 1006.26 1006.08 1005.90 1005.77 1005.67 1005.63 1005.64
1013.63 1013.59 1013.97 1014.11 1013.95 1013.96 1014.05 1014.03 1014.01 1014.06 1013.99 1013.72 1013.18 1012.69 1012.37 1011.87 1011.65 1011.37 1011.35 1011.02 1010.67 1010.46 1010.22 1009.89 1009.65 1009.34 1009.09 1008.78 1008.36 1007.98 1007.53 1007.27 1006.91 1006.61 1006.21 1005.87 1005.67 1005.44 1005.21 1005.07 1004.88 1004.71 1004.64
1014.17 1014.29 1014.50 1014.62 1014.51 1014.60 1014.67 1014.57 1014.52 1014.33 1014.26 1014.12 1013.42 1013.04 1012.30 1011.77 1011.71 1011.66 1011.48 1011.06 1010.82 1010.58 1010.32 1010.02 1009.75 1009.50 1009.13 1008.73 1008.39 1008.08 1007.75 1007.32 1006.79 1006.31 1005.92 1005.52 1005.15 1004.81 1004.41 1004.18 1004.04 1003.92 1003.75
1014.65 1014.84 1015.05 1015.07 1015.02 1015.16 1015.25 1015.12 1014.94 1014.87 1014.51 1014.20 1013.84 1013.24 1012.40 1011.65 1011.76 1011.69 1011.45 1011.23 1010.86 1010.59 1010.33 1009.94 1009.79 1009.54 1009.19 1008.68 1008.27 1007.77 1007.42 1007.08 1006.62 1006.10 1005.63 1005.10 1004.75 1004.39 1003.93 1003.51 1003.39 1003.16 1002.93
1015.11 1015.23 1015.50 1015.58 1015.58 1015.60 1015.59 1015.57 1015.53 1015.49 1015.14 1014.86 1014.96 1014.11 1013.44 1012.57 1011.89 1012.11 1011.75 1011.34 1011.09 1010.88 1010.51 1010.27 1010.05 1009.75 1009.35 1009.06 1008.60 1008.10 1007.59 1006.91 1006.34 1005.77 1005.10 1004.57 1004.07 1003.62 1003.28 1002.96 1002.64 1002.41 1002.32
1015.53 1015.63 1015.74 1015.85 1015.91 1015.91 1016.03 1015.95 1015.91 1015.96 1015.88 1015.32 1015.13 1015.13 1014.78 1014.36 1013.37 1012.04 1011.94 1011.55 1011.37 1011.21 1010.97 1010.78 1010.32 1009.78 1009.34 1008.97 1008.58 1008.22 1007.59 1007.13 1006.48 1005.83 1005.22 1004.72 1004.19 1003.54 1003.08 1002.70 1002.37 1002.12 1001.91
1015.91 1015.91 1015.95 1016.09 1016.24 1016.25 1016.26 1016.21 1016.10 1016.11 1015.98 1015.87 1015.33 1015.17 1015.54 1015.49 1014.80 1012.94 1012.30 1012.14 1011.65 1011.33 1011.02 1010.68 1010.21 1009.64 1009.26 1008.89 1008.55 1008.11 1007.65 1006.90 1006.46 1005.74 1005.10 1004.59 1003.97 1003.32 1002.69 1002.20 1001.71 1001.37 1001.08
1016.32 1016.27 1016.30 1016.36 1016.45 1016.43 1016.41 1016.35 1016.27 1016.18 1016.03 1016.00 1015.94 1015.55 1015.25 1014.99 1014.69 1014.39 1012.56 1012.17 1011.87 1011.37 1010.87 1010.42 1009.96 1009.53 1009.20 1008.79 1008.36 1007.86 1007.36 1006.93 1006.22 1005.65 1004.97 1004.32 1003.76 1003.16 1002.60 1001.80 1001.13 1000.63 1000.23
1016.81 1016.69 1016.52 1016.55 1016.52 1016.52 1016.47 1016.39 1016.30 1016.14 1016.04 1015.98 1015.90 1015.76 1015.63 1015.36 1014.74 1014.19 1013.01 1012.03 1011.53 1011.16 1010.75 1010.46 1009.92 1009.50 1009.00 1008.57 1008.06 1007.62 1007.16 1006.44 1005.75 1005.18 1004.57 1003.96 1003.44 1002.88 1002.29 1001.56 1001.08 1000.65 999.90
1017.01 1016.95 1016.87 1016.82 1016.77 1016.63 1016.45 1016.36 1016.27 1016.13 1015.99 1015.98 1015.87 1015.62 1015.27 1015.00 1014.65 1014.18 1013.45 1012.08 1011.10 1010.67 1010.23 1010.01 1009.61 1009.23 1008.83 1008.51 1008.07 1007.54 1006.93 1006.18 1005.54 1004.82 1004.23 1003.45 1002.73 1002.32 1001.72 1001.24 1000.81 1000.15 999.38
1017.10 1017.09 1017.05 1016.95 1016.85 1016.60 1016.42 1016.35 1016.28 1016.17 1015.97 1015.81 1015.61 1015.33 1015.09 1014.75 1014.37 1013.96 1013.41 1012.65 1010.65 1010.11 1009.63 1009.22 1009.18 1008.88 1008.49 1008.09 1007.63 1007.18 1006.53 1005.79 1005.21 1004.46 1003.62 1002.69 1002.25 1001.62 1001.09 1000.56 999.99 999.43 998.86
1017.15 1017.14 1017.09 1017.05 1016.90 1016.72 1016.57 1016.48 1016.38 1016.19 1015.97 1015.67 1015.41 1015.14 1014.96 1014.47 1014.06 1013.58 1013.19 1012.83 1012.09 1009.96 1008.52 1008.37 1008.42 1008.28 1007.98 1007.64 1007.15 1006.55 1006.03 1005.27 1004.43 1003.61 1002.81 1002.15 1001.44 1000.65 1000.23 1000.02 999.53 998.91 998.36
1017.25 1017.22 1017.19 1017.10 1016.94 1016.82 1016.68 1016.50 1016.28 1015.96 1015.73 1015.47 1015.16 1015.08 1014.72 1014.29 1013.80 1013.25 1012.74 1012.42 1012.00 1011.15 1009.00 1008.43 1007.64 1007.37 1007.15 1006.76 1006.33 1005.80 1005.27 1004.48 1003.56 1002.79 1002.12 1001.26 1000.46 1000.19 999.57 999.16 998.74 997.86 997.07
1017.34 1017.31 1017.23 1017.07 1016.95 1016.79 1016.52 1016.29 1016.04 1015.65 1015.50 1015.35 1015.12 1014.82 1014.52 1014.09 1013.51 1012.94 1012.39 1011.84 1011.26 1010.87 1009.74 1007.33 1007.17 1006.62 1006.02 1005.56 1005.03 1004.76 1004.32 1003.64 1002.80 1001.97 1001.09 1000.36 999.64 999.19 998.70 998.38 997.51 996.82 996.13
1017.38 1017.33 1017.21 1017.06 1016.83 1016.60 1016.35 1016.07 1015.78 1015.38 1015.27 1015.10 1014.84 1014.65 1014.27 1013.68 1013.16 1012.55 1011.85 1011.16 1010.59 1009.96 1009.35 1007.95 1006.46 1006.05 1005.54 1004.71 1004.11 1003.56 1003.02 1002.52 1001.96 1001.65 1000.64 999.78 999.03 998.53 997.71 996.83 996.14 995.57 995.06
1017.34 1017.26 1017.16 1016.96 1016.70 1016.40 1016.01 1015.59 1015.27 1015.13 1014.96 1014.72 1014.52 1014.30 1013.87 1013.38 1012.70 1011.96 1011.24 1010.47 1009.75 1009.05 1008.49 1007.77 1006.46 1005.57 1004.68 1004.41 1003.43 1002.88 1002.45 1001.72 1001.25 1000.36 999.64 998.97 998.23 997.34 996.55 995.72 994.99 994.52 993.99
1017.32 1017.21 1016.99 1016.72 1016.41 1016.02 1015.61 1015.19 1014.98 1014.73 1014.46 1014.20 1013.99 1013.80 1013.45 1012.89 1012.11 1011.23 1010.39 1009.68 1009.04 1008.40 1007.63 1006.83 1005.79 1004.75 1004.17 1003.51 1003.31 1002.32 1000.74 1000.69 1000.05 999.60 998.73 998.03 997.30 996.34 995.43 994.84 994.43 993.72 993.04
1017.27 1017.08 1016.86 1016.56 1016.18 1015.80 1015.34 1014.96 1014.53 1014.15 1013.97 1013.72 1013.50 1013.21 1012.77 1012.20 1011.43 1010.62 1009.72 1009.05 1008.47 1007.61 1006.93 1005.93 1005.15 1004.23 1003.62 1002.79 1002.30 1001.42 1000.51 999.46 998.92 998.53 997.41 996.59 996.15 995.54 994.96 994.25 993.50 992.63 992.00
1017.21 1017.03 1016.81 1016.48 1016.10 1015.78 1015.30 1014.63 1014.07 1013.66 1013.40 1013.20 1012.89 1012.38 1011.97 1011.42 1010.72 1009.87 1009.31 1008.51 1007.61 1006.66 1006.05 1005.28 1004.16 1003.59 1002.82 1002.29 1001.49 1000.61 999.53 998.63 997.31 997.58 996.49 995.57 995.61 994.20 993.75 993.02 992.27 991.29 990.43
1017.28 1017.08 1016.75 1016.42 1016.14 1015.59 1014.90 1014.25 1013.70 1013.23 1012.89 1012.65 1012.25 1011.72 1011.09 1010.56 1010.03 1009.42 1008.41 1007.48 1006.87 1006.24 1005.65 1004.86 1003.88 1003.20 1002.21 1001.58 1000.58 999.49 999.01 998.41 997.32 996.40 995.99 993.83 994.17 993.01 992.56 991.72 990.93 989.91 989.11
1017.31 1017.04 1016.68 1016.34 1015.91 1015.34 1014.73 1014.07 1013.41 1012.87 1012.61 1012.28 1011.86 1011.35 1010.72 1010.03 1009.55 1008.45 1007.38 1006.49 1005.90 1005.45 1004.81 1004.11 1003.41 1002.35 1001.59 1000.60 999.82 998.92 998.12 997.27 996.47 995.59 995.03 993.15 992.91 991.97 991.27 990.60 989.60 988.52 987.74
1017.15 1016.85 1016.46 1016.12 1015.82 1015.33 1014.67 1013.95 1013.28 1012.85 1012.32 1011.81 1011.33 1010.85 1010.40 1009.60 1008.71 1007.52 1006.52 1005.67 1005.30 1004.75 1004.06 1003.16 1002.38 1001.54 1000.80 1000.01 999.21 998.28 997.46 996.70 995.28 994.51 993.64 992.91 991.82 990.85 990.25 989.33 988.09 987.08 986.42
1016.97 1016.61 1016.30 1016.01 1015.65 1015.22 1014.67 1014.00 1013.37 1012.76 1012.01 1011.38 1010.93 1010.43 1009.80 1008.93 1007.65 1006.84 1005.99 1005.35 1004.78 1003.90 1003.12 1002.32 1001.75 1000.95 1000.20 999.38 998.48 997.95 997.19 996.24 995.18 993.77 992.29 992.18 991.08 990.40 988.55 987.48 986.51 985.98 985.53
Thickness
5698 5696 5694 5693 5692 5692 5690 5687 5684 5682 5681 5679 5677 5676 5675 5674 5671 5670 5669 5669 5669 5669 5666 5668 5667 5668 5668 5668 5667 5666 5665 5662 5661 5661 5661 5660 5659 5658 5657 5656 5655 5654 5653
5693 5691 5689 5687 5686 5685 5683 5681 5678 5675 5672 5669 5667 5666 5665 5666 5664 5664 5664 5664 5664 5663 5662 5659 5661 5663 5663 5662 5661 5660 5659 5658 5657 5655 5655 5654 5653 5653 5652 5651 5649 5648 5648
5687 5684 5679 5677 5676 5675 5674 5671 5667 5664 5661 5660 5658 5658 5656 5655 5655 5655 5655 5655 5653 5651 5650 5650 5651 5653 5652 5651 5651 5650 5650 5649 5648 5648 5648 5647 5647 5645 5645 5644 5644 5643 5641
5678 5674 5670 5667 5665 5664 5662 5658 5654 5651 5649 5647 5647 5647 5646 5646 5646 5645 5644 5641 5641 5640 5640 5639 5639 5639 5638 5636 5636 5637 5639 5637 5635 5635 5635 5635 5636 5635 5635 5635 5635 5636 5636
5665 5663 5659 5656 5655 5652 5648 5645 5641 5638 5637 5636 5638 5639 5637 5638 5636 5635 5632 5631 5630 5628 5627 5626 5624 5623 5621 5620 5620 5619 5619 5618 5619 5619 5621 5622 5622 5623 5624 5624 5625 5626 5628
5655 5652 5648 5644 5643 5639 5634 5632 5629 5627 5625 5624 5628 5627 5629 5629 5627 5623 5620 5620 5617 5615 5613 5612 5610 5607 5605 5604 5602 5601 5600 5601 5601 5602 5603 5604 5605 5608 5611 5611 5612 5613 5616
5644 5640 5636 5632 5629 5625 5620 5619 5617 5614 5612 5611 5611 5615 5617 5619 5615 5611 5610 5606 5604 5600 5597 5596 5592 5588 5586 5585 5583 5583 5581 5580 5582 5584 5585 5586 5587 5588 5591 5593 5593 5596 5599
5633 5629 5625 5620 5616 5611 5608 5605 5602 5599 5597 5594 5591 5593 5597 5603 5603 5596 5592 5589 5585 5581 5578 5574 5569 5566 5564 5562 5561 5559 5559 5560 5561 5562 5565 5567 5569 5570 5569 5571 5573 5576 5578
5622 5618 5613 5608 5604 5600 5595 5592 5588 5584 5581 5580 5575 5571 5565 5566 5576 5585 5581 5576 5570 5565 5558 5554 5550 5547 5544 5542 5538 5536 5535 5534 5536 5536 5536 5537 5539 5542 5545 5547 5547 5549 5553
5610 5606 5602 5597 5592 5588 5583 5580 5577 5572 5569 5565 5563 5557 5546 5537 5535 5550 5559 5554 5550 5546 5540 5535 5532 5528 5524 5521 5517 5514 5511 5511 5510 5510 5511 5510 5510 5512 5515 5519 5525 5528 5527
5597 5594 5590 5586 5582 5578 5573 5569 5565 5560 5555 5550 5544 5541 5538 5531 5523 5515 5524 5524 5524 5522 5520 5517 5513 5507 5501 5495 5491 5488 5485 5482 5482 5480 5480 5479 5479 5480 5481 5487 5492 5496 5500
5586 5583 5580 5576 5572 5568 5563 5558 5553 5548 5543 5536 5529 5522 5515 5509 5509 5504 5507 5509 5505 5502 5495 5489 5484 5477 5472 5467 5462 5457 5453 5451 5450 5448 5446 5443 5441 5441 5444 5449 5453 5456 5462
5576 5572 5569 5564 5560 5556 5552 5548 5541 5536 5529 5521 5514 5508 5501 5494 5487 5482 5479 5486 5487 5486 5483 5473 5461 5449 5438 5429 5422 5417 5415 5413 5411 5408 5404 5403 5403 5403 5405 5409 5412 5416 5422
5566 5562 5558 5554 5549 5546 5541 5535 5528 5521 5515 5506 5499 5492 5485 5478 5471 5464 5458 5452 5466 5467 5466 5456 5439 5425 5411 5399 5390 5381 5378 5376 5373 5373 5372 5374 5372 5374 5374 5376 5379 5385 5391
5557 5551 5547 5542 5537 5532 5527 5520 5512 5505 5498 5490 5483 5476 5467 5462 5454 5446 5437 5427 5418 5430 5448 5443 5416 5403 5386 5370 5360 5349 5345 5346 5346 5344 5343 5344 5346 5348 5350 5350 5353 5358 5363
5545 5540 5535 5529 5524 5518 5512 5505 5497 5491 5483 5475 5468 5458 5451 5443 5436 5428 5418 5405 5392 5382 5394 5406 5395 5379 5365 5348 5335 5322 5316 5318 5323 5322 5319 5321 5324 5322 5326 5328 5330 5336 5342
5534 5529 5523 5517 5511 5504 5497 5490 5483 5477 5469 5460 5450 5442 5433 5424 5417 5407 5396 5383 5371 5351 5343 5376 5363 5355 5348 5335 5326 5311 5299 5297 5298 5300 5298 5300 5303 5303 5304 5305 5312 5318 5325
5523 5517 5510 5504 5497 5490 5483 5476 5470 5463 5454 5445 5435 5424 5415 5405 5394 5382 5371 5359 5344 5334 5316 5317 5339 5329 5320 5318 5313 5305 5296 5287 5278 5275 5275 5279 5282 5282 5286 5293 5300 5305 5311
5510 5504 5497 5490 5483 5476 5470 5464 5457 5449 5439 5428 5416 5404 5393 5382 5371 5358 5344 5333 5324 5315 5304 5293 5299 5304 5301 5293 5291 5285 5278 5273 5266 5265 5265 5264 5264 5268 5273 5281 5287 5292 5297
5498 5491 5483 5476 5469 5463 5458 5452 5443 5434 5424 5412 5399 5385 5371 5357 5345 5333 5323 5311 5302 5294 5288 5282 5279 5283 5280 5275 5262 5261 5272 5261 5258 5252 5254 5253 5251 5258 5264 5266 5271 5279 5285
5485 5477 5469 5463 5456 5450 5445 5437 5429 5419 5407 5395 5379 5364 5349 5334 5321 5308 5297 5292 5281 5277 5272 5269 5265 5264 5261 5259 5251 5252 5251 5254 5249 5241 5246 5247 5246 5249 5250 5253 5258 5266 5271
5471 5463 5456 5450 5443 5436 5428 5421 5412 5403 5389 5374 5360 5346 5329 5312 5300 5293 5283 5274 5268 5263 5258 5251 5251 5247 5247 5243 5243 5243 5244 5241 5249 5236 5238 5243 5235 5244 5244 5246 5251 5259 5265
5457 5449 5443 5436 5427 5418 5413 5405 5396 5385 5371 5355 5338 5323 5311 5296 5283 5274 5273 5267 5260 5252 5240 5233 5235 5235 5236 5234 5236 5239 5237 5235 5238 5239 5235 5250 5238 5244 5243 5248 5251 5259 5264
5444 5437 5430 5421 5412 5403 5395 5385 5376 5364 5348 5331 5314 5298 5285 5278 5266 5258 5256 5253 5245 5237 5231 5230 5227 5229 5229 5231 5232 5235 5238 5240 5240 5240 5234 5246 5243 5246 5248 5251 5256 5262 5266
5432 5425 5416 5407 5397 5386 5375 5363 5352 5339 5325 5311 5295 5279 5264 5255 5250 5246 5241 5238 5233 5229 5228 5228 5226 5226 5227 5227 5227 5230 5229 5230 5238 5240 5235 5239 5245 5250 5251 5256 5262 5267 5269
5422 5413 5404 5392 5380 5367 5353 5340 5325 5308 5302 5290 5279 5264 5251 5239 5238 5235 5232 5230 5226 5228 5227 5228 5226 5226 5226 5227 5226 5222 5221 5225 5229 5237 5240 5239 5244 5245 5260 5266 5269 5270 5270